Weather History for KCOD - September, 2014

Change the Weather History Date:

Monday, September 22, 2014

  Actual Average Record
Temperature  
Mean Temperature 68 °F -  
Max Temperature 75 °F 67 °F 93 °F (1922)
Min Temperature 62 °F 39 °F 24 °F (2000)
Cooling Degree Days 4    
Growing Degree Days 18 (Base 50)    
Moisture  
Dew Point 44 °F    
Average Humidity 41    
Maximum Humidity 52    
Minimum Humidity 31    
Precipitation  
Precipitation 0.00 in - - ()
Sea Level Pressure  
Sea Level Pressure 30.04 in    
Wind  
Wind Speed 11 mph (WSW)    
Max Wind Speed 17 mph    
Max Gust Speed 28 mph    
Visibility 10 miles    
Events      
Averages and records for this station are not official NWS values.
T = Trace of Precipitation, MM = Missing Value Source: NWS Daily Summary

Daily Weather History Graph

Daily Weather History Graph

Search for Another Location

Airport or City:

Trip Planner

Search our weather history database for the weather conditions in past years. The results will help you decide how hot, cold, wet, or windy it might be!

Date:

Astronomy

Sep. 22, 2014 Rise Set
Actual Time 7:03 AM MDT 7:13 PM MDT
Civil Twilight 6:34 AM MDT 7:42 PM MDT
Nautical Twilight 6:00 AM MDT 8:16 PM MDT
Astronomical Twilight 5:25 AM MDT 8:51 PM MDT
Moon 5:32 AM MDT (9/22) 6:24 PM MDT (9/22)
Length of Visible Light 13h 08m
Length of Day
12h 10m
Waning Crescent, 2% of the Moon is Illuminated
Sep 22
Waning Crescent
Sep 24
New
Oct 1
First Quarter
Oct 8
Full
Oct 15
Last Quarter

Hourly Weather History & Observations

Time (MDT) Temp. Dew Point Humidity Pressure Visibility Wind Dir Wind Speed Gust Speed Precip Events Conditions
12:15 AM - - N/A% - - North - - N/A   Unknown
12:35 AM - - N/A% - - North - - N/A   Unknown
12:55 AM - - N/A% - - North - - N/A   Unknown
1:15 AM - - N/A% - - North - - N/A   Unknown
1:35 AM - - N/A% - - North - - N/A   Unknown
2:15 AM - - N/A% - - North - - N/A   Unknown
2:35 AM - - N/A% - - North - - N/A   Unknown
2:55 AM - - N/A% - - North - - N/A   Unknown
3:15 AM - - N/A% - - North - - N/A   Unknown
3:35 AM - - N/A% - - North - - N/A   Unknown
3:55 AM - - N/A% - - North - - N/A   Unknown
4:15 AM - - N/A% - - North - - N/A   Unknown
4:35 AM - - N/A% - - North - - N/A   Unknown
4:55 AM - - N/A% - - North - - N/A   Unknown
5:15 AM - - N/A% - - North - - N/A   Unknown
5:35 AM - - N/A% - - North - - N/A   Unknown
5:55 AM - - N/A% - - North - - N/A   Unknown
6:15 AM - - N/A% - - North - - N/A   Unknown
6:35 AM - - N/A% - - North - - N/A   Unknown
6:55 AM - - N/A% - - North - - N/A   Unknown
7:15 AM - - N/A% - - North - - N/A   Unknown
7:35 AM - - N/A% - - North - - N/A   Unknown
7:55 AM - - N/A% - - North - - N/A   Unknown
8:15 AM - - N/A% - - North - - N/A   Unknown
8:35 AM 64.4 °F 46.4 °F 52% 30.06 in 10.0 mi SW 4.6 mph - N/A   Unknown
8:55 AM 64.4 °F 44.6 °F 49% 30.06 in 10.0 mi West 11.5 mph 20.7 mph N/A   Scattered Clouds
9:15 AM 64.4 °F 46.4 °F 52% 30.06 in 10.0 mi SW 12.7 mph 17.3 mph N/A   Scattered Clouds
9:35 AM 64.4 °F 46.4 °F 52% 30.07 in 10.0 mi WSW 9.2 mph 16.1 mph N/A   Partly Cloudy
9:55 AM 64.4 °F 44.6 °F 49% 30.07 in 10.0 mi WSW 5.8 mph 25.3 mph N/A   Clear
10:15 AM 66.2 °F 44.6 °F 46% 30.07 in 10.0 mi WSW 15.0 mph 20.7 mph N/A   Clear
10:35 AM 68.0 °F 44.6 °F 43% 30.06 in 10.0 mi West 13.8 mph 20.7 mph N/A   Clear
10:55 AM 69.8 °F 44.6 °F 40% 30.06 in 10.0 mi West 13.8 mph 26.5 mph N/A   Clear
11:15 AM 69.8 °F 42.8 °F 38% 30.05 in 10.0 mi WSW 9.2 mph 27.6 mph N/A   Clear
11:35 AM 71.6 °F 42.8 °F 35% 30.05 in 10.0 mi West 12.7 mph 17.3 mph N/A   Clear
11:55 AM 71.6 °F 42.8 °F 35% 30.05 in 10.0 mi WSW 13.8 mph 25.3 mph N/A   Clear
12:15 PM 73.4 °F 42.8 °F 33% 30.04 in 10.0 mi WSW 15.0 mph 26.5 mph N/A   Clear
12:35 PM 73.4 °F 42.8 °F 33% 30.04 in 10.0 mi WSW 12.7 mph 24.2 mph N/A   Clear
12:55 PM 73.4 °F 42.8 °F 33% 30.04 in 10.0 mi WSW 13.8 mph 20.7 mph N/A   Clear
1:15 PM 73.4 °F 42.8 °F 33% 30.03 in 10.0 mi WSW 10.4 mph 19.6 mph N/A   Clear
1:35 PM 75.2 °F 42.8 °F 31% 30.03 in 10.0 mi WSW 12.7 mph 21.9 mph N/A   Clear
1:55 PM 75.2 °F 42.8 °F 31% 30.02 in 10.0 mi WSW 12.7 mph 19.6 mph N/A   Clear
2:15 PM 75.2 °F 42.8 °F 31% 30.02 in 10.0 mi WSW 16.1 mph 25.3 mph N/A   Clear
2:35 PM 75.2 °F 42.8 °F 31% 30.01 in 10.0 mi WSW 13.8 mph 21.9 mph N/A   Clear
2:55 PM 75.2 °F 42.8 °F 31% 30.02 in 10.0 mi WSW 13.8 mph 23.0 mph N/A   Mostly Cloudy
3:15 PM 75.2 °F 42.8 °F 31% 30.01 in 10.0 mi WSW 15.0 mph 23.0 mph N/A   Mostly Cloudy
3:35 PM 73.4 °F 44.6 °F 36% 30.01 in 10.0 mi WSW 11.5 mph 23.0 mph N/A   Scattered Clouds
3:55 PM 73.4 °F 46.4 °F 38% 30.01 in 10.0 mi West 17.3 mph 25.3 mph N/A   Scattered Clouds
4:15 PM 73.4 °F 44.6 °F 36% 30.02 in 10.0 mi West 8.1 mph 23.0 mph N/A   Mostly Cloudy
4:35 PM 71.6 °F 44.6 °F 38% 30.01 in 10.0 mi West 13.8 mph 26.5 mph N/A   Mostly Cloudy
4:55 PM 71.6 °F 44.6 °F 38% 30.01 in 10.0 mi WSW 13.8 mph 20.7 mph N/A   Mostly Cloudy
5:15 PM 69.8 °F 42.8 °F 38% 30.02 in 10.0 mi WSW 15.0 mph 21.9 mph N/A   Mostly Cloudy
5:35 PM 69.8 °F 42.8 °F 38% 30.02 in 10.0 mi WSW 12.7 mph 24.2 mph N/A   Mostly Cloudy
5:55 PM 69.8 °F 42.8 °F 38% 30.02 in 10.0 mi WSW 12.7 mph 19.6 mph N/A   Mostly Cloudy
6:15 PM 69.8 °F 42.8 °F 38% 30.02 in 10.0 mi WSW 11.5 mph 19.6 mph N/A   Scattered Clouds
6:35 PM 69.8 °F 42.8 °F 38% 30.02 in 10.0 mi WSW 12.7 mph 19.6 mph N/A   Clear
6:55 PM 68.0 °F 42.8 °F 40% 30.02 in 10.0 mi WSW 12.7 mph 23.0 mph N/A   Clear
7:15 PM 68.0 °F 42.8 °F 40% 30.03 in 10.0 mi WSW 17.3 mph 26.5 mph N/A   Clear
7:35 PM 66.2 °F 42.8 °F 43% 30.03 in 10.0 mi WSW 13.8 mph 24.2 mph N/A   Clear
7:55 PM 66.2 °F 42.8 °F 43% 30.04 in 10.0 mi WSW 13.8 mph 27.6 mph N/A   Clear
8:15 PM 66.2 °F 42.8 °F 43% 30.04 in 10.0 mi WSW 12.7 mph 20.7 mph N/A   Clear
8:55 PM 66.2 °F 42.8 °F 43% 30.06 in 10.0 mi West 12.7 mph 19.6 mph N/A   Clear
9:15 PM 66.2 °F 44.6 °F 46% 30.06 in 10.0 mi West 8.1 mph 19.6 mph N/A   Clear
9:35 PM 64.4 °F 44.6 °F 49% 30.06 in 10.0 mi WNW 10.4 mph - N/A   Partly Cloudy
9:55 PM 64.4 °F 44.6 °F 49% 30.06 in 10.0 mi West 10.4 mph 20.7 mph N/A   Scattered Clouds
10:15 PM 64.4 °F 44.6 °F 49% 30.05 in 10.0 mi WSW 8.1 mph - N/A   Scattered Clouds
10:35 PM 64.4 °F 44.6 °F 49% 30.06 in 10.0 mi WSW 6.9 mph - N/A   Clear
10:55 PM 64.4 °F 44.6 °F 49% 30.06 in 10.0 mi West 11.5 mph 17.3 mph N/A   Clear
11:15 PM 62.6 °F 44.6 °F 52% 30.06 in 10.0 mi West 4.6 mph - N/A   Clear
11:35 PM 64.4 °F 44.6 °F 49% 30.06 in 10.0 mi West 9.2 mph - N/A   Clear
11:55 PM 64.4 °F 44.6 °F 49% 30.06 in 10.0 mi West 10.4 mph 18.4 mph N/A   Clear